Terug naar catalogus

STARLINK-2241

ActiefCommunicatieVLEO
NORAD 48586·PAYLOAD·🇺🇸 United States

Gelanceerd May 15, 2021 vanaf Cape Canaveral Space Force Station

Loading…

Volgende Passages (komende 24 uur)

TLE

VersSource: CelesTrak SupGP

Epoch: Sep 14, 2026, 21:57 UTC

1 48586C 21041AK  26257.91506944 -.00032902  00000+0 -10584-2 0  2573
2 48586  53.1583 348.3113 0000801  83.2029 126.7521 15.31708273    16

Volg STARLINK-2241 in realtime met AllMySat

Download on the App Store